Location: Ambatotampy
(18.8181°S, 47.6186°E)
Time: 00:13:49
(UTC+00:00)

COSMOS 2455 - Pass Details

Date: 21 January 2021
Orbit: 901 x 908 km, 67.1° (Epoch: 24 February)

Event Time Altitude Azimuth Distance (km) Brightness Sun altitude
Exits shadow 01:15:14 - 358° (N) 3,455 5.6 -16.6°
Reaches altitude 10° 01:17:44 10° 5° (N) 2,574 5.0 -16.1°
Maximum altitude 01:23:14 39° 72° (ENE) 1,327 4.1 -14.9°
Drops below altitude 10° 01:28:46 10° 139° (SE) 2,592 6.4 -13.8°
Sets 01:31:25 0° 146° (SSE) 3,537 7.1 -13.2°
